Voltar ao catálogo

IRIDIUM 920

AtivoComunicaçõesPO
NORAD 24871·PAYLOAD·🇺🇸 United States

Lançado Jul 9, 1997 de Vandenberg Space Force Base

Loading…

Próximas Passagens (próximas 24 horas)

TLE

AtualizadoSource: Space-Track

Época: Sep 14, 2026, 14:38 UTC

1 24871U 97034C   26257.61026462  .00000274  00000-0  77447-4 0  9990
2 24871  86.4003  21.7801 0012365  31.3912 328.8024 14.41939885532054

Acompanhe IRIDIUM 920 em tempo real com AllMySat

Download on the App Store